Simultaneous Nadir Overpasses (SNOs) Predictions

Prediction of SNOs between GOES-16 and LANDSAT-8 Satellite Orbit:

Table of predicted SNOs for the next 14.0 days since TLE Epoch: 3/26/2022
Index Date Time (GOES-16) GOES-16 Lat,Lon LANDSAT-8 Lat,Lon Distance(km) Time Diff (sec)
1 03/26/2022 15:27:13 0.06, -75.23 0.73, -78.33 353.08 80
2 03/28/2022 15:15:00 0.05, -75.23 0.09, -75.37 15.99 80
3 03/30/2022 15:00:07 0.05, -75.25 -0.56, -72.42 322.30 80
4 03/31/2022 03:24:11 -0.05, -75.23 -0.53, -77.61 269.98 80
5 04/02/2022 03:09:17 -0.05, -75.26 0.07, -74.64 69.43 80
6 04/04/2022 02:57:04 -0.05, -75.29 0.73, -71.69 409.30 80
7 04/04/2022 15:18:18 0.05, -75.32 0.36, -76.85 173.52 80
8 04/06/2022 15:08:45 0.05, -75.35 -0.25, -73.88 166.78 80
9 04/07/2022 03:30:08 -0.05, -75.34 -0.83, -79.08 424.90 80
